Location: Demmingen
(48.6757°N, 10.4375°E)
Time: 06:28:04
(UTC+00:00)

CZ-2C R/B - Pass Details

Date: 14 August 2024
Orbit: 782 x 869 km, 98.3° (Epoch: 08 September)

Event Time Altitude Azimuth Distance (km) Brightness Sun altitude
Exits shadow 01:14:12 46° 179° (S) 1,132 2.9 -22.4°
Maximum altitude 01:15:55 78° 256° (WSW) 865 2.6 -22.3°
Drops below altitude 10° 01:21:22 10° 343° (NNW) 2,442 5.6 -21.8°
Sets 01:23:42 0° 345° (NNW) 3,366 6.5 -21.6°
